カタログに戻る

CZ-6A DEB

運用中SSO
NORAD 54528·DEBRIS·🇨🇳 China

打ち上げ Nov 11, 2022 から Taiyuan Satellite Launch Center

Loading…

次のパス (今後24時間)

TLE

最新Source: Space-Track

元期: Sep 14, 2026, 01:02 UTC

1 54528U 22151KG  26257.04343188  .00001660  00000-0  42940-3 0  9993
2 54528  98.5295 290.7374 0091710  51.4598 309.4770 14.48774018201890

AllMySatでCZ-6A DEBをリアルタイム追跡

Download on the App Store